TimeMDT,TemperatureF,Dew PointF,Humidity,Sea Level PressureIn,VisibilityMPH,Wind Direction,Wind SpeedMPH,Gust SpeedMPH,PrecipitationIn,Events,Conditions,WindDirDegrees,DateUTC
12:15 AM,57.2,39.2,51,29.85,10.0,ENE,5.8,-,N/A,,Overcast,60,2013-05-17 06:15:00
12:35 AM,57.2,39.2,51,29.85,10.0,ENE,6.9,-,N/A,,Overcast,70,2013-05-17 06:35:00
12:55 AM,57.2,37.4,48,29.85,10.0,North,5.8,-,N/A,,Overcast,350,2013-05-17 06:55:00
1:15 AM,57.2,37.4,48,29.86,10.0,NNW,8.1,-,N/A,,Overcast,330,2013-05-17 07:15:00
1:35 AM,57.2,39.2,51,29.85,10.0,North,8.1,-,N/A,,Overcast,350,2013-05-17 07:35:00
1:55 AM,57.2,39.2,51,29.85,10.0,North,8.1,-,N/A,,Overcast,10,2013-05-17 07:55:00
2:15 AM,57.2,39.2,51,29.85,10.0,NNE,8.1,-,N/A,,Overcast,20,2013-05-17 08:15:00
2:35 AM,57.2,39.2,51,29.85,10.0,NNE,8.1,-,N/A,,Overcast,20,2013-05-17 08:35:00
2:55 AM,57.2,39.2,51,29.85,10.0,NW,8.1,-,N/A,,Overcast,320,2013-05-17 08:55:00
3:15 AM,57.2,39.2,51,29.84,10.0,NW,9.2,-,N/A,,Overcast,310,2013-05-17 09:15:00
3:35 AM,57.2,41.0,55,29.85,10.0,WNW,6.9,-,N/A,,Overcast,300,2013-05-17 09:35:00
3:55 AM,57.2,41.0,55,29.85,10.0,West,6.9,-,N/A,,Overcast,270,2013-05-17 09:55:00
4:15 AM,57.2,41.0,55,29.85,10.0,West,8.1,-,N/A,,Overcast,280,2013-05-17 10:15:00
4:35 AM,57.2,42.8,59,29.85,10.0,West,6.9,-,N/A,,Overcast,260,2013-05-17 10:35:00
4:55 AM,57.2,41.0,55,29.85,10.0,West,6.9,-,N/A,,Overcast,260,2013-05-17 10:55:00
5:15 AM,55.4,42.8,63,29.86,10.0,West,6.9,-,N/A,,Overcast,270,2013-05-17 11:15:00
5:35 AM,55.4,42.8,63,29.86,10.0,WNW,5.8,-,N/A,,Overcast,290,2013-05-17 11:35:00
6:15 AM,55.4,42.8,63,29.86,10.0,NW,6.9,-,N/A,,Overcast,320,2013-05-17 12:15:00
6:35 AM,55.4,42.8,63,29.86,10.0,NW,5.8,-,N/A,,Overcast,320,2013-05-17 12:35:00
6:55 AM,55.4,42.8,63,29.86,10.0,NW,4.6,-,N/A,,Overcast,320,2013-05-17 12:55:00
7:15 AM,55.4,42.8,63,29.87,10.0,NW,5.8,-,N/A,,Overcast,310,2013-05-17 13:15:00
7:55 AM,55.4,42.8,63,29.88,10.0,NNW,4.6,-,N/A,,Overcast,330,2013-05-17 13:55:00
8:15 AM,55.4,42.8,63,29.89,10.0,NNW,4.6,-,N/A,,Overcast,330,2013-05-17 14:15:00
8:35 AM,57.2,42.8,59,29.89,10.0,North,5.8,-,N/A,,Overcast,350,2013-05-17 14:35:00
8:55 AM,57.2,42.8,59,29.89,10.0,North,5.8,-,N/A,,Overcast,350,2013-05-17 14:55:00
9:15 AM,57.2,42.8,59,29.89,10.0,NW,5.8,-,N/A,,Overcast,310,2013-05-17 15:15:00
9:35 AM,57.2,42.8,59,29.90,10.0,West,9.2,-,N/A,,Overcast,280,2013-05-17 15:35:00
9:55 AM,57.2,44.6,63,29.90,10.0,WNW,6.9,-,N/A,,Overcast,290,2013-05-17 15:55:00
10:15 AM,57.2,44.6,63,29.90,10.0,WNW,10.4,-,N/A,,Overcast,300,2013-05-17 16:15:00
10:35 AM,57.2,44.6,63,29.90,10.0,WNW,8.1,-,N/A,,Overcast,290,2013-05-17 16:35:00
10:55 AM,57.2,44.6,63,29.90,10.0,WNW,11.5,-,N/A,,Overcast,290,2013-05-17 16:55:00
11:15 AM,59.0,44.6,59,29.90,10.0,WNW,13.8,-,N/A,,Overcast,300,2013-05-17 17:15:00
11:35 AM,59.0,44.6,59,29.90,10.0,NW,11.5,-,N/A,,Overcast,310,2013-05-17 17:35:00
11:55 AM,60.8,44.6,55,29.90,10.0,WNW,8.1,18.4,N/A,,Overcast,300,2013-05-17 17:55:00
12:15 PM,60.8,44.6,55,29.90,10.0,NW,6.9,-,N/A,,Overcast,310,2013-05-17 18:15:00
12:35 PM,60.8,42.8,52,29.90,10.0,West,9.2,-,N/A,,Overcast,260,2013-05-17 18:35:00
1:15 PM,55.4,46.4,72,29.91,10.0,WSW,11.5,-,0.02,,Overcast,250,2013-05-17 19:15:00
1:35 PM,57.2,48.2,72,29.91,10.0,WNW,8.1,-,0.03,,Overcast,300,2013-05-17 19:35:00
1:55 PM,59.0,46.4,63,29.91,10.0,WNW,8.1,-,0.03,,Mostly Cloudy,290,2013-05-17 19:55:00
2:15 PM,60.8,46.4,59,29.91,10.0,NNW,9.2,-,N/A,,Scattered Clouds,340,2013-05-17 20:15:00
2:35 PM,62.6,46.4,55,29.91,10.0,North,5.8,-,N/A,,Scattered Clouds,350,2013-05-17 20:35:00
2:55 PM,62.6,44.6,52,29.91,10.0,NW,4.6,-,N/A,,Partly Cloudy,310,2013-05-17 20:55:00
3:15 PM,62.6,42.8,48,29.91,10.0,West,4.6,-,N/A,,Scattered Clouds,260,2013-05-17 21:15:00
3:35 PM,62.6,42.8,48,29.90,10.0,NW,9.2,-,N/A,,Mostly Cloudy,310,2013-05-17 21:35:00
3:55 PM,64.4,42.8,45,29.90,10.0,WNW,9.2,-,N/A,,Mostly Cloudy,290,2013-05-17 21:55:00
4:15 PM,62.6,42.8,48,29.90,10.0,NW,9.2,-,N/A,,Mostly Cloudy,310,2013-05-17 22:15:00
4:55 PM,64.4,44.6,49,29.89,10.0,North,12.7,-,N/A,,Overcast,360,2013-05-17 22:55:00
5:15 PM,64.4,44.6,49,29.89,10.0,North,11.5,-,N/A,,Partly Cloudy,350,2013-05-17 23:15:00
5:35 PM,62.6,44.6,52,29.89,10.0,NNW,11.5,-,N/A,,Clear,330,2013-05-17 23:35:00
5:55 PM,62.6,44.6,52,29.89,10.0,NNW,10.4,-,N/A,,Partly Cloudy,330,2013-05-17 23:55:00
6:15 PM,62.6,42.8,48,29.89,10.0,North,8.1,-,N/A,,Clear,10,2013-05-18 00:15:00
6:35 PM,64.4,42.8,45,29.89,10.0,NNW,10.4,-,N/A,,Clear,340,2013-05-18 00:35:00
6:55 PM,64.4,42.8,45,29.89,10.0,North,9.2,-,N/A,,Clear,360,2013-05-18 00:55:00
7:15 PM,62.6,42.8,48,29.89,10.0,NNW,8.1,-,N/A,,Clear,340,2013-05-18 01:15:00
7:35 PM,62.6,44.6,52,29.89,10.0,NNW,9.2,-,N/A,,Clear,330,2013-05-18 01:35:00
7:55 PM,62.6,44.6,52,29.89,10.0,NNW,11.5,-,N/A,,Clear,330,2013-05-18 01:55:00
8:15 PM,62.6,42.8,48,29.89,10.0,NNW,8.1,-,N/A,,Clear,340,2013-05-18 02:15:00
8:35 PM,60.8,42.8,52,29.90,10.0,NNW,10.4,-,N/A,,Clear,330,2013-05-18 02:35:00
8:55 PM,59.0,41.0,51,29.91,10.0,NW,9.2,-,N/A,,Clear,320,2013-05-18 02:55:00
9:15 PM,57.2,41.0,55,29.92,10.0,NW,10.4,-,N/A,,Clear,320,2013-05-18 03:15:00
9:35 PM,57.2,41.0,55,29.93,10.0,NW,8.1,-,N/A,,Clear,320,2013-05-18 03:35:00
9:55 PM,55.4,41.0,58,29.94,10.0,NW,6.9,-,N/A,,Clear,310,2013-05-18 03:55:00
10:35 PM,57.2,42.8,59,29.95,10.0,NW,9.2,-,N/A,,Mostly Cloudy,310,2013-05-18 04:35:00
10:55 PM,57.2,42.8,59,29.96,10.0,WNW,10.4,-,N/A,,Mostly Cloudy,290,2013-05-18 04:55:00
11:15 PM,55.4,42.8,63,29.96,10.0,WNW,8.1,-,N/A,,Scattered Clouds,300,2013-05-18 05:15:00
11:35 PM,55.4,42.8,63,29.96,10.0,WNW,8.1,-,N/A,,Overcast,290,2013-05-18 05:35:00
11:55 PM,55.4,41.0,58,29.96,10.0,WNW,11.5,-,N/A,,Overcast,290,2013-05-18 05:55:00